This is the latest recevied weather packets stored in our database for station/object N0QV. If no packets are shown the sender has not sent any weather packets the latest 10 day(s).
| Time | Temp. | Humidity | Pressure | Rain* | Wind** | Luminosity | Snow |
|---|---|---|---|---|---|---|---|
| 1788389603 | 31.11° C | 61% | 1010.6 hPa | 0 mm | - | 73 W/m² | - |
| 1788389301 | 31.11° C | 60% | 1010.5 hPa | 0 mm | - | 157 W/m² | - |
| 1788388996 | 31.11° C | 59% | 1010.5 hPa | 0 mm | - | 199 W/m² | - |
| 1788388693 | 31.67° C | 59% | 1010.5 hPa | 0 mm | - | 238 W/m² | - |
| 1788388388 | 31.67° C | 59% | 1010.5 hPa | 0 mm | - | 214 W/m² | - |
| 1788388087 | 31.67° C | 59% | 1010.8 hPa | 0 mm | - | 260 W/m² | - |
| 1788387787 | 31.67° C | 57% | 1010.7 hPa | 0 mm | - | 263 W/m² | - |
| 1788387487 | 31.67° C | 57% | 1010.7 hPa | 0 mm | - | 285 W/m² | - |
| 1788387186 | 31.67° C | 57% | 1010.8 hPa | 0 mm | - | 285 W/m² | - |
| 1788386882 | 32.22° C | 56% | 1010.6 hPa | 0 mm | - | 301 W/m² | - |
| 1788386581 | 32.22° C | 55% | 1010.7 hPa | 0 mm | - | 320 W/m² | - |
| 1788386276 | 32.78° C | 55% | 1010.7 hPa | 0 mm | - | 311 W/m² | - |
| 1788385972 | 32.78° C | 54% | 1010.5 hPa | 0 mm | - | 333 W/m² | - |
| 1788385668 | 32.78° C | 55% | 1010.6 hPa | 0 mm | - | 355 W/m² | - |
| 1788385366 | 32.78° C | 55% | 1010.8 hPa | 0 mm | - | 382 W/m² | - |
| 1788385062 | 32.78° C | 53% | 1010.9 hPa | 0 mm | - | 393 W/m² | - |
| 1788384762 | 32.78° C | 55% | 1010.7 hPa | 0 mm | - | 356 W/m² | - |
| 1788384461 | 32.78° C | 55% | 1010.7 hPa | 0 mm | - | 391 W/m² | - |
| 1788384158 | 32.78° C | 54% | 1010.7 hPa | 0 mm | - | 416 W/m² | - |
| 1788383854 | 32.78° C | 56% | 1010.9 hPa | 0 mm | - | 431 W/m² | - |
| 1788383550 | 32.22° C | 59% | 1011.1 hPa | 0 mm | - | 454 W/m² | - |
| 1788383249 | 32.22° C | 60% | 1010.9 hPa | 0 mm | - | 447 W/m² | - |
| 1788382945 | 32.22° C | 60% | 1011.1 hPa | 0 mm | - | 475 W/m² | - |
| 1788382642 | 32.22° C | 59% | 1011 hPa | 0 mm | - | 465 W/m² | - |
| 1788382338 | 32.22° C | 59% | 1011.1 hPa | 0 mm | - | 457 W/m² | - |
* Rain latest hour (hover to see other rain measurements)
** Current wind speed in m/s (hover to see current wind gust speed)